Precipitable_Water
1.30 1.46 1.51 1.47 1.46 1.40 1.35 1.30 1.26 1.15 1.07 1.42 1.17 0.94 1.05 1.31 1.46 1.54 1.55 1.58 1.56 1.54 1.45 1.27 0.97 0.80 0.84 0.96 1.00 1.03 1.10 1.20 1.25 1.24 1.20 1.19 1.19 1.17 1.16 1.22 1.35 1.40 1.30
1.39 1.49 1.48 1.48 1.42 1.40 1.33 1.30 1.22 1.08 1.28 1.36 0.98 0.83 0.91 1.18 1.41 1.61 1.61 1.58 1.54 1.45 1.14 0.85 0.79 0.87 0.98 1.06 1.07 1.09 1.10 1.15 1.18 1.15 1.14 1.04 1.09 1.24 1.21 1.32 1.31 1.30 1.24
1.40 1.51 1.49 1.44 1.43 1.42 1.37 1.27 1.15 1.26 1.37 1.11 0.91 0.80 0.83 0.97 1.24 1.50 1.53 1.45 1.35 1.11 0.88 0.82 0.83 0.95 1.05 1.06 1.08 1.09 1.08 1.09 1.10 1.06 1.05 1.04 1.13 1.15 1.18 1.18 1.17 1.16 1.11
1.43 1.47 1.45 1.44 1.43 1.38 1.30 1.23 1.20 1.44 1.21 1.03 0.96 0.81 0.87 0.89 1.02 1.22 1.36 1.26 1.14 0.92 0.86 0.85 0.86 0.99 1.05 1.06 1.07 1.07 1.12 1.11 1.10 1.02 0.93 0.94 0.95 0.99 1.00 1.01 1.02 1.02 1.03
1.39 1.46 1.44 1.45 1.41 1.31 1.24 1.19 1.17 1.38 1.16 1.08 0.92 0.85 0.85 0.93 0.92 1.00 1.03 1.01 0.90 0.86 0.88 0.88 0.88 1.03 1.06 1.04 1.05 1.08 1.10 1.07 1.04 0.96 0.88 0.89 0.96 1.01 0.92 0.86 0.84 0.88 0.95
1.39 1.50 1.50 1.46 1.40 1.34 1.22 1.10 1.08 1.29 1.19 1.12 1.01 0.87 0.87 0.88 0.91 0.93 0.94 0.90 0.89 0.92 0.91 0.91 0.88 0.97 0.98 0.99 1.02 1.04 1.10 1.10 1.05 0.96 0.85 0.91 0.92 0.92 0.88 0.85 0.84 0.83 0.86
1.43 1.57 1.58 1.56 1.46 1.34 1.20 1.05 1.07 1.24 1.27 1.18 1.07 0.94 0.91 0.90 0.90 0.94 0.95 0.93 0.94 0.95 0.94 0.91 0.88 0.86 0.92 0.95 0.97 0.99 1.00 1.00 0.96 0.96 0.89 0.92 1.00 1.04 1.01 0.96 0.91 0.90 0.88
1.47 1.64 1.67 1.66 1.55 1.41 1.21 1.11 1.08 1.14 1.32 1.24 1.11 0.98 0.91 0.91 0.91 0.92 0.93 0.94 0.96 0.96 0.96 0.93 0.93 0.93 0.90 0.90 0.93 0.93 0.93 0.89 0.94 0.94 0.92 0.98 1.02 1.08 1.09 1.01 0.97 0.94 0.93
1.62 1.66 1.72 1.70 1.57 1.46 1.28 1.12 1.11 1.14 1.33 1.36 1.22 1.09 0.98 0.91 0.93 0.94 0.95 0.96 0.97 0.96 0.98 0.96 0.94 0.94 0.94 0.91 0.92 0.93 0.92 0.90 0.90 0.93 0.92 0.96 1.05 1.10 1.11 1.11 1.05 0.94 0.93
1.65 1.66 1.68 1.69 1.57 1.50 1.31 1.11 1.13 1.18 1.33 1.42 1.33 1.19 1.08 1.01 0.96 0.99 0.98 0.98 0.96 0.95 0.95 0.95 0.94 0.92 0.90 0.89 0.89 0.90 0.89 0.88 0.85 0.91 0.91 0.95 1.01 1.05 1.08 1.08 1.06 1.02 0.93
1.79 1.72 1.67 1.64 1.56 1.50 1.32 1.15 1.26 1.30 1.27 1.36 1.40 1.25 1.16 1.10 1.05 0.97 0.95 0.98 0.98 0.96 0.95 0.94 0.92 0.89 0.87 0.85 0.84 0.85 0.86 0.85 0.80 0.83 0.84 0.88 0.91 0.98 1.05 1.09 1.09 1.08 0.99
1.68 1.70 1.74 1.64 1.55 1.51 1.36 1.21 1.28 1.34 1.29 1.34 1.40 1.30 1.21 1.15 1.10 1.06 1.03 0.99 0.95 0.94 0.93 0.92 0.90 0.87 0.87 0.87 0.85 0.84 0.83 0.83 0.81 0.81 0.82 0.84 0.86 0.93 1.05 1.14 1.12 1.09 1.02
1.78 1.79 1.74 1.66 1.62 1.54 1.40 1.30 1.17 1.24 1.35 1.33 1.33 1.28 1.19 1.20 1.16 1.13 1.09 1.01 0.97 0.93 0.89 0.89 0.88 0.87 0.86 0.85 0.80 0.80 0.81 0.83 0.81 0.78 0.81 0.87 0.90 0.97 1.04 1.16 1.18 1.13 1.10
1.43 1.67 1.81 1.77 1.57 1.57 1.51 1.40 1.32 1.15 1.13 1.14 1.15 1.11 1.13 1.13 1.14 1.11 1.05 1.00 0.90 0.89 0.83 0.93 0.94 0.95 0.95 0.94 0.93 0.93 0.92 0.89 0.85 0.85 0.85 0.90 0.93 0.98 1.05 1.18 1.20 1.18 1.17
1.32 1.49 1.67 1.83 1.66 1.53 1.50 1.47 1.41 1.38 1.24 1.18 1.12 1.04 1.08 1.06 1.07 1.04 1.02 1.04 0.99 0.99 0.94 0.95 0.96 0.95 0.95 0.97 1.00 0.98 0.97 0.96 0.94 0.94 0.94 0.95 0.97 1.02 1.07 1.15 1.25 1.27 1.26
1.41 1.48 1.50 1.76 1.79 1.66 1.55 1.49 1.50 1.47 1.43 1.35 1.29 1.25 1.18 1.14 1.09 1.05 1.02 1.06 1.02 1.01 1.00 0.96 0.95 0.96 0.96 1.00 0.98 1.01 1.01 1.01 0.99 1.00 1.05 1.10 1.14 1.17 1.19 1.20 1.21 1.21 1.23
1.47 1.55 1.57 1.63 1.81 1.76 1.65 1.60 1.54 1.46 1.45 1.38 1.39 1.36 1.28 1.29 1.23 1.16 1.07 1.06 1.03 1.01 1.01 0.99 0.97 1.00 1.03 1.07 1.05 1.07 1.07 1.09 1.12 1.14 1.16 1.20 1.24 1.22 1.19 1.26 1.23 1.19 1.16
1.49 1.51 1.61 1.61 1.63 1.73 1.67 1.64 1.61 1.57 1.49 1.46 1.43 1.42 1.36 1.35 1.30 1.22 1.13 1.10 1.11 1.10 1.06 1.04 1.03 1.03 1.05 1.06 1.07 1.10 1.12 1.12 1.15 1.16 1.20 1.24 1.29 1.25 1.26 1.27 1.25 1.15 1.07
1.51 1.47 1.49 1.62 1.69 1.73 1.72 1.68 1.64 1.64 1.59 1.51 1.51 1.44 1.41 1.38 1.36 1.26 1.20 1.14 1.17 1.17 1.18 1.17 1.16 1.16 1.11 1.12 1.10 1.10 1.12 1.14 1.13 1.16 1.14 1.18 1.25 1.28 1.26 1.23 1.18 1.15 1.09
1.48 1.47 1.50 1.53 1.64 1.69 1.71 1.66 1.68 1.65 1.56 1.58 1.54 1.47 1.46 1.42 1.40 1.34 1.25 1.18 1.21 1.20 1.23 1.22 1.18 1.21 1.17 1.15 1.13 1.08 1.07 1.07 1.09 1.05 1.05 1.12 1.17 1.24 1.24 1.19 1.14 1.09 1.09
1.43 1.44 1.44 1.50 1.59 1.54 1.49 1.46 1.53 1.47 1.49 1.45 1.42 1.45 1.46 1.45 1.43 1.40 1.30 1.25 1.28 1.24 1.24 1.27 1.23 1.18 1.16 1.20 1.09 1.01 1.02 1.04 1.04 1.03 1.07 1.06 1.08 1.12 1.16 1.17 1.11 1.06 1.04
1.16 1.29 1.38 1.37 1.47 1.52 1.48 1.46 1.44 1.43 1.44 1.45 1.43 1.47 1.45 1.44 1.45 1.44 1.42 1.37 1.36 1.30 1.27 1.29 1.28 1.21 1.19 1.16 1.00 0.97 0.77 0.84 0.91 0.93 1.01 1.03 1.01 1.07 1.04 1.12 1.12 1.06 0.99
1.13 1.16 1.21 1.31 1.36 1.46 1.50 1.49 1.50 1.50 1.46 1.40 1.40 1.37 1.41 1.46 1.49 1.47 1.44 1.41 1.39 1.39 1.34 1.33 1.28 1.22 1.10 1.15 1.12 1.00 0.81 0.71 0.80 0.93 0.98 0.99 1.01 1.02 1.03 1.03 1.03 0.98 0.92
0.96 1.19 1.24 1.28 1.37 1.45 1.50 1.43 1.40 1.31 1.27 1.37 1.40 1.46 1.50 1.52 1.52 1.51 1.43 1.40 1.40 1.37 1.31 1.28 1.30 1.23 1.13 0.97 1.02 1.09 1.02 0.97 0.74 0.69 0.88 0.89 0.97 0.95 0.95 0.98 0.98 0.96 0.96
0.92 1.04 1.18 1.25 1.28 1.38 1.42 1.42 1.40 1.38 1.40 1.46 1.44 1.39 1.46 1.55 1.51 1.50 1.46 1.38 1.32 1.27 1.23 1.22 1.17 1.04 0.99 0.89 0.84 0.81 0.79 0.79 0.83 0.76 0.61 0.69 0.80 0.87 0.94 0.95 0.94 0.94 0.97
0.87 0.91 1.00 1.15 1.22 1.32 1.41 1.45 1.41 1.40 1.38 1.42 1.42 1.36 1.33 1.37 1.35 1.36 1.34 1.28 1.23 1.16 1.04 0.96 0.92 0.91 0.90 0.86 0.84 0.81 0.76 0.69 0.66 0.67 0.65 0.68 0.67 0.75 0.88 0.93 0.97 0.95 0.97
Wind_Speed
18 17 16 14 12 10 9 8 7 7 9 9 9 9 10 10 11 11 10 10 9 8 7 6 6 7 8 9 9 10 10 11 12 12 11 12 12 12 12 12 13 12 11
19 18 17 15 13 11 10 9 8 9 10 10 9 9 10 10 10 11 10 9 8 7 6 7 8 8 9 9 9 9 9 10 10 11 12 11 12 12 12 12 13 14 12
20 19 17 15 14 12 11 10 10 10 11 10 9 9 9 10 10 10 9 8 7 6 7 8 8 9 9 9 8 8 8 8 9 10 10 11 11 11 12 12 12 13 13
21 20 18 16 15 13 12 11 11 11 11 10 9 9 9 10 10 9 8 7 7 7 8 8 8 8 8 8 8 8 9 9 8 9 10 10 10 11 11 12 12 13 13
22 20 19 17 16 14 13 12 12 12 11 11 10 10 10 10 10 9 8 7 8 8 8 8 8 8 8 7 8 8 8 8 8 9 9 9 10 11 11 12 12 13 13
23 21 20 18 16 14 13 12 13 13 12 11 10 10 10 10 10 10 9 9 9 8 8 8 7 7 6 7 7 7 7 7 7 8 8 9 10 10 11 12 13 13 13
24 22 21 19 17 15 14 13 13 13 12 12 11 10 10 10 9 10 9 9 8 8 7 7 6 6 5 5 5 5 5 5 6 7 7 8 9 10 11 12 13 13 13
26 24 22 20 17 16 14 14 14 14 13 12 11 10 10 9 9 9 9 8 7 7 6 6 5 4 3 3 3 4 4 5 5 6 7 7 8 9 11 12 13 13 13
28 25 23 20 18 16 15 14 14 14 13 13 11 10 10 9 9 8 8 7 6 5 5 4 3 2 1 1 2 2 4 5 5 6 7 8 9 10 11 12 13 14 14
28 26 24 21 19 17 16 15 15 14 14 13 11 10 9 9 8 7 7 6 5 4 3 2 1 1 1 2 3 4 5 6 6 7 8 9 10 11 12 13 14 14 14
26 26 25 23 21 19 17 16 15 14 14 13 12 10 9 8 7 7 6 5 5 4 3 3 3 3 4 4 5 6 6 7 8 8 9 10 11 12 13 13 14 14 15
27 27 26 25 23 21 18 17 16 14 14 13 12 11 9 8 7 7 6 6 6 6 6 5 6 6 6 7 7 7 8 9 9 10 10 11 12 13 14 14 15 15 16
27 28 28 26 25 23 20 18 16 15 14 13 13 12 11 10 9 8 8 8 8 8 8 8 8 8 8 9 9 9 10 10 11 11 12 12 13 14 15 15 16 16 17
30 28 29 28 27 24 22 20 17 16 16 15 14 14 13 12 12 11 10 9 9 9 9 9 9 9 10 10 10 11 11 12 12 13 13 14 15 16 16 17 17 18 18
25 26 30 29 28 27 24 21 19 18 17 16 15 15 15 14 13 13 12 11 11 10 10 10 10 11 12 12 12 13 13 13 14 14 15 16 17 17 18 19 19 19 20
27 23 27 29 27 27 26 24 21 20 19 19 18 17 16 16 15 15 14 14 13 12 12 12 12 12 13 13 14 14 15 15 16 17 17 18 18 19 20 21 20 21 21
28 26 24 27 27 26 27 26 24 22 21 20 20 20 19 18 18 17 16 16 15 14 14 14 13 13 14 14 15 16 17 17 18 19 20 20 21 22 22 22 22 22 22
31 30 27 26 26 28 24 27 26 25 23 22 22 22 21 21 20 19 18 18 17 16 15 15 15 15 16 16 17 17 18 19 20 21 22 23 23 24 24 24 24 23 22
29 30 29 28 28 27 25 26 26 26 25 24 25 24 24 22 22 21 20 20 19 18 18 17 17 18 18 19 20 20 20 22 23 24 24 25 26 26 26 26 25 24 23
29 29 29 30 29 27 27 25 26 26 26 25 24 25 25 24 23 22 22 21 20 20 19 19 20 20 21 21 22 23 24 25 25 26 27 27 27 27 27 26 25 23 23
30 28 30 30 29 29 28 27 27 27 27 27 26 25 26 26 25 24 23 22 22 22 21 21 21 23 23 24 24 25 26 27 28 28 28 28 28 28 27 25 24 23 23
28 30 30 31 31 30 30 28 29 28 28 28 28 27 27 27 26 25 24 24 23 23 23 24 25 25 25 25 26 28 27 28 29 28 28 27 26 26 26 25 24 23 24
29 29 29 30 30 31 31 30 29 29 28 28 28 28 27 27 27 27 26 25 25 24 25 26 26 27 28 28 29 29 29 28 28 28 26 27 27 27 26 25 25 25 24
31 31 29 30 30 30 30 31 31 30 29 29 28 28 27 27 28 28 27 27 27 27 27 28 28 29 30 31 31 32 33 33 31 30 29 28 27 27 27 27 26 25 24
31 31 33 31 32 32 33 34 32 33 33 32 31 30 29 31 30 30 29 29 29 29 29 30 31 31 31 32 32 31 32 32 33 33 33 31 30 29 29 29 27 25 24
29 29 30 32 33 32 32 33 33 33 32 31 31 31 30 30 30 29 29 29 29 30 30 31 32 33 34 34 33 33 33 32 32 31 32 31 30 29 29 28 27 25 24
Wind_Direction
188 184 181 179 177 174 169 164 156 148 143 138 131 131 134 134 128 130 131 128 127 120 112 102 92 91 88 83 80 77 75 69 64 61 59 57 53 49 45 41 33 27 27
182 182 181 180 178 176 170 162 156 149 144 140 134 134 139 140 138 130 130 129 129 121 110 105 102 98 93 87 82 78 75 69 64 58 56 56 52 45 44 39 34 33 28
184 183 182 181 178 173 169 162 156 151 148 142 137 135 137 145 144 140 131 127 126 120 115 111 107 103 96 87 78 73 72 71 64 56 53 52 47 41 38 33 29 26 22
184 182 182 180 176 173 170 165 159 154 151 145 140 136 136 141 146 147 140 134 128 123 119 115 111 107 99 88 77 71 75 73 65 56 50 46 41 36 32 27 23 20 18
184 182 180 178 175 172 169 166 163 159 155 150 142 139 137 137 140 144 143 135 129 125 121 117 113 110 100 86 78 73 77 69 61 51 45 42 38 32 28 24 20 16 13
183 180 178 176 174 172 170 167 165 162 159 153 147 141 138 137 137 137 134 131 129 126 122 119 116 113 102 89 79 72 70 63 52 43 42 38 32 26 22 18 15 11 8
182 180 178 177 174 172 169 167 165 164 161 157 152 147 142 140 139 138 137 134 132 129 125 121 118 113 104 90 76 64 58 51 40 34 30 25 21 17 13 10 7 5 4
185 184 182 179 177 174 171 169 167 166 162 160 156 151 147 144 142 142 141 139 137 134 130 124 121 115 103 86 68 50 38 26 17 15 11 5 2 1 0 359 359 357 356
187 184 183 182 180 178 175 173 170 169 166 163 159 155 151 150 148 147 147 146 145 143 140 136 130 121 104 60 27 12 2 357 351 350 349 349 347 346 347 348 349 350 349
187 188 189 186 184 182 180 177 174 173 173 170 169 164 160 159 159 160 161 163 164 166 169 175 188 237 286 304 314 321 326 331 329 329 332 334 335 335 337 339 340 342 342
192 192 192 191 189 187 186 183 180 180 181 182 180 178 175 175 178 180 185 190 196 206 219 235 255 274 284 293 300 305 311 317 320 319 322 325 328 329 330 332 334 336 336
199 198 197 196 194 193 192 190 189 188 188 190 192 194 196 198 199 203 209 219 228 235 245 256 266 275 280 287 294 298 303 308 312 313 315 319 322 324 325 325 327 329 330
205 202 202 199 198 198 198 197 198 198 198 200 205 209 213 215 219 223 231 239 244 249 255 262 268 273 279 285 288 293 298 302 306 308 310 312 316 319 321 319 320 322 323
209 208 204 203 203 204 204 205 206 208 211 214 217 220 223 230 232 237 243 247 250 254 258 264 269 274 278 284 287 291 295 298 300 304 307 308 310 313 316 316 315 315 316
209 212 212 207 205 208 210 211 213 216 219 221 224 226 230 234 239 242 245 249 253 256 261 266 271 275 278 282 286 289 292 294 297 300 302 304 305 308 311 312 310 310 311
210 214 210 210 210 209 213 216 220 223 228 229 231 233 236 239 243 245 247 249 253 257 263 269 274 278 281 283 286 287 290 292 294 296 299 301 302 304 307 309 309 308 307
216 216 211 213 217 216 217 221 225 229 233 232 235 238 239 244 246 247 248 249 252 257 263 269 274 278 282 284 286 288 289 291 293 295 296 296 299 300 303 305 305 306 307
221 219 222 219 217 219 221 223 229 232 235 236 239 242 243 246 247 247 249 249 251 257 263 269 273 278 281 284 286 288 290 292 293 296 296 295 295 298 299 299 301 302 304
223 221 224 221 221 221 224 228 231 234 237 242 244 245 244 247 247 247 249 250 252 257 263 269 273 277 281 283 285 288 289 291 293 294 295 294 294 295 297 296 295 296 298
225 227 226 225 225 224 228 233 234 238 241 243 243 244 243 247 247 248 250 249 252 258 264 269 273 277 281 284 286 288 289 291 292 293 294 293 293 293 294 295 295 292 295
227 228 227 229 231 231 234 234 235 238 241 244 245 244 246 247 246 247 249 250 253 259 265 269 274 277 281 284 286 288 289 290 291 292 292 293 294 292 292 291 293 291 295
230 230 232 233 234 234 236 238 237 240 243 244 246 246 247 245 244 246 249 252 256 261 264 271 274 278 281 284 286 289 290 291 292 292 292 292 293 292 292 290 291 290 294
232 232 233 235 235 235 236 238 239 242 244 245 245 246 245 244 245 248 251 255 258 263 268 273 277 277 280 283 285 286 289 289 292 292 292 292 291 290 290 288 288 289 291
235 234 236 237 237 238 239 239 241 243 244 244 244 244 245 245 246 248 252 255 259 264 269 272 277 279 281 283 286 285 285 285 288 289 290 291 291 288 287 287 286 287 286
236 238 238 239 240 241 244 245 244 245 246 247 247 247 249 251 251 252 254 256 260 264 269 273 277 280 282 284 284 286 286 286 286 286 289 288 287 287 286 285 284 283 285
235 238 240 239 242 243 244 245 246 246 247 250 249 247 250 252 253 255 258 261 263 266 270 275 278 280 282 283 283 284 284 285 286 286 287 287 285 286 285 284 281 281 282